Погода в Клатене

Индонезия     7°41′37″S   110°36′46″E
темп.,
°C
ветер,
м/с
пор.,
м/с
влажн.,
%
обл.,
%
осадки,
мм/ч
давл.,
гПа
погр.,
м
2 марта, вт
вт201:00+24св018898 0.0 101024
04:00+23ссв128889 0.1 100925
07:00+24св118694 0.1 101060
10:00+28юз217071 0.1 1011524
13:00+30всв226180 0.4 10081013
16:00+27юз347778 6.2 1007438
19:00+24юз238988 11.8 101079
22:00+24зсз2491100 4.4 1012139
3 марта, ср
ср301:00+24зсз1186100 4.6 101026
04:00+23св118793 0.0 100924
07:00+24всв238287 0.0 1010156
10:00+29в226085 0.0 1011722
13:00+29в346587 0.1 1009584
16:00+29юв116688 0.9 1008940
19:00+25ююз118172 1.1 101026
22:00+24св0188100 0.9 101230
4 марта, чт
чт401:00+23ссз119183 1.1 101124
04:00+22ссв119151 0.6 101123
07:00+25всв118349 0.6 1012106
10:00+30юв116235 0.0 1012889
13:00+31ююз225562 0.4 10091293
16:00+28ююз466994 2.7 1008572
19:00+24зюз238697 3.6 101162
22:00+24з2388100 0.0 101271
5 марта, пт
пт501:00+24з2385100 0.1 101193
04:00+24з1282100 0.0 101051
07:00+25з1178100 0.0 1012121
10:00+29юз34568 0.0 10121000
13:00+31ююз455237 0.0 10091137
16:00+29ююз446181 0.1 1007752
19:00+25юз127869 0.1 100934
22:00+24з118181 0.0 101125
6 марта, сб
сб601:00+23сз008382 0.0 101024
04:00+23всв118477 0.0 100923
07:00+24св228285 0.1 1010144
10:00+29в216699 0.4 1010905
13:00+30ю116677 6.6 1008903
16:00+24з2493100 20.1 1008203
19:00+23ссв1297100 62.4 1010203
22:00+23ссв1193100 3.5 101260